Location: Bats
(43.6587°N, 0.4584°W)
Time: 04:13:57
(UTC+00:00)

PSLV R/B - Visible Passes

Search period start: 21 April 2026 00:00
Search period end: 01 May 2026 00:00
Orbit: 559 x 586 km, 98.0° (Epoch: 20 April)

Date Brightness Start Highest point End Pass type
(mag) Time Alt. Az. Time Alt. Az. Time Alt. Az.
21 Apr 4.9 19:28:02 10° S 19:31:52 40° W 19:35:47 10° NNW visible
22 Apr 5.0 19:30:43 10° SSW 19:34:32 38° W 19:38:24 10° NNW visible
23 Apr 5.1 19:33:24 10° SSW 19:37:11 35° W 19:41:00 10° NNW visible
24 Apr 5.2 19:36:06 10° SSW 19:39:49 33° W 19:43:36 10° NNW visible
25 Apr 5.4 19:38:48 10° SSW 19:42:28 31° W 19:46:11 10° NNW visible
26 Apr 5.5 19:41:30 10° SSW 19:45:06 30° W 19:48:46 10° NW visible
27 Apr 5.6 19:44:13 10° SSW 19:47:45 28° W 19:51:20 10° NW visible
28 Apr 5.7 19:46:55 10° SSW 19:50:23 26° W 19:53:55 10° NW visible
29 Apr 5.8 19:49:37 10° SSW 19:53:02 25° W 19:56:28 10° NW visible
30 Apr 5.9 19:52:20 10° SSW 19:55:39 23° W 19:59:01 10° NW visible
